Preview of NWS' New Version of Forecast
This preview is not operational and should not be used for support decisions.

Regional Weather Roundup (RWR)

Issued by National Weather Service (NWS)

                            
000
ASUS44 KMEG 210700
RWRTN 
TENNESSEE HOURLY STATE WEATHER ROUNDUP
NATIONAL WEATHER SERVICE MEMPHIS TN
200 AM CDT SUN JUL 21 2019

TNZ002-004-019-021-049-052-054-088>092-210800-
WEST TENNESSEE
  
CITY           SKY/WX    TMP DP  RH WIND       PRES   REMARKS
MEMPHIS INTL   FAIR      77  75  93 S6        29.98S                  
NWS MEMPHIS      N/A     76 N/A N/A MISG        N/A                   
JACKSON        FAIR      75  73  93 S5        29.97F                  
DYERSBURG      FAIR      76  75  97 SE5       29.98S                  
$$

TNZ008-025-027-028-033-062-065-066-210800-
NORTH MIDDLE TENNESSEE
  
CITY           SKY/WX    TMP DP  RH WIND       PRES   REMARKS
NASHVILLE      PTCLDY    72  70  94 CALM      30.01S                  
CLARKSVILLE    FAIR      75  70  84 S3        29.99R                  
SMYRNA         FAIR      71  71 100 CALM      30.01S                  
CROSSVILLE     CLOUDY    71  69  93 S6        30.06R                  
$$

TNZ061-075-076-078-094-096-097-210800-
SOUTH MIDDLE TENNESSEE
  
CITY           SKY/WX    TMP DP  RH WIND       PRES   REMARKS
$$

TNZ017-018-042-046-047-210800-
NORTHEAST TENNESSEE
  
CITY           SKY/WX    TMP DP  RH WIND       PRES   REMARKS
TRI CITIES     MOCLDY    72  70  93 CALM      30.06F                  
$$

TNZ012-013-036-069-073-074-210800-
CENTRAL EAST TENNESSEE
  
CITY           SKY/WX    TMP DP  RH WIND       PRES   REMARKS
KNOXVILLE      MOCLDY    74  72  93 NE5       30.01R                  
OAK RIDGE      FAIR      75  72  90 CALM      30.03S                  
$$

TNZ083-085-099-210800-
SOUTHEAST TENNESSEE
  
CITY           SKY/WX    TMP DP  RH WIND       PRES   REMARKS
CHATTANOOGA    FAIR      76  74  93 W3        30.01R                  
$$

SKY/WX REPORTED AS FAIR MEANS FEW OR NO CLOUDS BELOW
12 THOUSAND FEET.